Location: Fort Worth, Tx
(32.7431°N, 97.3695°W)
Time: 21:12:32
(UTC-04:00)

ISS - Visible Passes

Search period start: 19 June 2025 00:00
Search period end: 29 June 2025 00:00
Orbit: 415 x 417 km, 51.6° (Epoch: 19 June)

Date Brightness Start Highest point End Pass type
(mag) Time Alt. Az. Time Alt. Az. Time Alt. Az.
19 Jun -1.9 05:31:12 20° SE 05:31:39 21° SE 05:34:13 10° ENE visible
20 Jun -3.3 06:17:34 20° WSW 06:19:39 51° NW 06:22:56 10° NE visible
21 Jun -3.9 05:30:54 74° S 05:31:03 77° SE 05:34:24 10° NE visible
22 Jun -1.5 04:44:05 21° ENE 04:44:05 21° ENE 04:45:32 10° ENE visible
22 Jun -1.6 06:16:57 11° W 06:19:14 18° NW 06:21:41 10° NNE visible
23 Jun -2.5 05:30:00 30° NW 05:30:19 30° NW 05:33:20 10° NNE visible
24 Jun -1.8 04:42:53 29° NNE 04:42:53 29° NNE 04:44:42 10° NE visible
25 Jun -0.4 03:55:39 11° NE 03:55:39 11° NE 03:55:47 10° NE visible
25 Jun -1.2 05:28:30 12° NW 05:29:28 13° NNW 05:31:06 10° N visible
26 Jun -1.2 04:41:07 18° NNW 04:41:07 18° NNW 04:42:49 10° NNE visible
27 Jun -0.4 03:53:38 13° NNE 03:53:38 13° NNE 03:54:05 10° NNE visible
